Seward, AK

5:45 AM AKST on February 12, 2016 (GMT -0900)
Seward

Weather History for PAWD - October, 2013

Change the Weather History Date:

Friday, October 25, 2013

  Actual Average Record
Temperature  
Mean Temperature 40 °F -  
Max Temperature 48 °F 40 °F 50 °F (1960)
Min Temperature 33 °F 31 °F 14 °F (1966)
Degree Days  
Heating Degree Days 26    
Moisture  
Dew Point 36 °F    
Average Humidity 90    
Maximum Humidity 100    
Minimum Humidity 71    
Precipitation  
Precipitation 0.04 in - - ()
Sea Level Pressure  
Sea Level Pressure 29.91 in    
Wind  
Wind Speed 2 mph (NNW)    
Max Wind Speed 9 mph    
Max Gust Speed 17 mph    
Visibility 9 miles    
Events Rain    
Averages and records for this station are not official NWS values.
T = Trace of Precipitation, MM = Missing Value Source: NWS Daily Summary

Daily Weather History Graph

Daily Weather History Graph

Search for Another Location

Airport or City:

Trip Planner

Search our weather history database for the weather conditions in past years. The results will help you decide how hot, cold, wet, or windy it might be!

Date:

Astronomy

Oct. 25, 2013 Rise Set
Actual Time 9:03 AM AKDT 6:18 PM AKDT
Civil Twilight 8:19 AM AKDT 7:02 PM AKDT
Nautical Twilight 7:30 AM AKDT 7:51 PM AKDT
Astronomical Twilight 6:42 AM AKDT 8:39 PM AKDT
Moon 11:26 PM AKDT (10/25) 3:14 PM AKDT (10/25)
Length of Visible Light 10h 42m
Length of Day
9h 14m
Waning Gibbous, 61% of the Moon is Illuminated
Oct 25
Waning Gibbous
Oct 26
Last Quarter
Nov 3
New
Nov 9
First Quarter
Nov 17
Full

Hourly Weather History & Observations

Time (AKDT) Temp. Windchill Dew Point Humidity Pressure Visibility Wind Dir Wind Speed Gust Speed Precip Events Conditions
12:53 AM 39.0 °F - 37.9 °F 96% 29.77 in 10.0 mi Calm Calm - 0.03 in Rain Light Rain
1:53 AM 39.9 °F 37.8 °F 39.0 °F 97% 29.79 in 10.0 mi North 3.5 mph - 0.01 in   Overcast
2:53 AM 39.0 °F - 37.9 °F 96% 29.80 in 10.0 mi Calm Calm - N/A   Overcast
3:53 AM 39.0 °F 36.8 °F 37.9 °F 96% 29.80 in 10.0 mi West 3.5 mph - N/A   Overcast
4:53 AM 39.0 °F - 37.9 °F 96% 29.82 in 10.0 mi Calm Calm - N/A   Overcast
5:53 AM 39.0 °F - 37.0 °F 93% 29.83 in 10.0 mi Calm Calm - N/A   Overcast
6:53 AM 37.0 °F - 36.0 °F 96% 29.83 in 9.0 mi Calm Calm - N/A   Clear
7:11 AM 35.6 °F - 33.8 °F 93% 29.83 in 1.8 mi Calm Calm - N/A   Clear
7:19 AM 35.6 °F - 33.8 °F 93% 29.84 in 1.5 mi Calm Calm - N/A   Partly Cloudy
7:29 AM 33.8 °F 28.6 °F 33.8 °F 100% 29.84 in 1.0 mi NNW 5.8 mph - N/A   Mist
7:33 AM 33.8 °F 29.6 °F 33.8 °F 100% 29.84 in 2.0 mi NNW 4.6 mph - N/A   Partly Cloudy
7:41 AM 33.8 °F 29.6 °F 33.8 °F 100% 29.85 in 10.0 mi NNW 4.6 mph - N/A   Partly Cloudy
7:53 AM 34.0 °F 28.8 °F 34.0 °F 100% 29.85 in 10.0 mi NNW 5.8 mph - N/A   Partly Cloudy
8:53 AM 35.1 °F - 34.0 °F 96% 29.88 in 10.0 mi Calm Calm - N/A   Mostly Cloudy
9:53 AM 34.0 °F - 33.1 °F 96% 29.89 in 10.0 mi Calm Calm - N/A   Overcast
10:53 AM 37.9 °F - 37.0 °F 97% 29.91 in 10.0 mi Calm Calm - N/A   Overcast
11:53 AM 41.0 °F 39.0 °F 39.0 °F 93% 29.92 in 10.0 mi NNW 3.5 mph - N/A   Overcast
12:53 PM 45.0 °F 43.5 °F 39.9 °F 82% 29.93 in 10.0 mi NNW 3.5 mph - N/A   Partly Cloudy
1:53 PM 46.9 °F - 37.9 °F 71% 29.94 in 10.0 mi North 3.5 mph - N/A   Clear
2:53 PM 46.9 °F - 37.9 °F 71% 29.95 in 10.0 mi NNW 3.5 mph - N/A   Clear
3:53 PM 44.1 °F 42.5 °F 39.9 °F 85% 29.95 in 10.0 mi SSE 3.5 mph - N/A   Clear
4:53 PM 43.0 °F - 37.0 °F 80% 29.98 in 10.0 mi Calm Calm - N/A   Clear
5:53 PM 39.0 °F 35.7 °F 37.0 °F 93% 29.99 in 10.0 mi NNW 4.6 mph - N/A   Clear
6:53 PM 37.0 °F - 35.1 °F 93% 30.02 in 10.0 mi Calm Calm - N/A   Clear
7:53 PM 37.0 °F 31.6 °F 34.0 °F 89% 30.03 in 10.0 mi North 6.9 mph - N/A   Clear
8:53 PM 39.0 °F 32.8 °F 34.0 °F 82% 30.06 in 10.0 mi North 9.2 mph - N/A   Clear
9:53 PM 39.0 °F 32.8 °F 33.1 °F 79% 30.08 in 10.0 mi North 9.2 mph - N/A   Clear
10:53 PM 39.9 °F 34.5 °F 33.1 °F 77% 30.12 in 10.0 mi North 8.1 mph 17.3 mph N/A   Overcast
11:53 PM 39.0 °F 33.4 °F 34.0 °F 82% 30.14 in 10.0 mi North 8.1 mph 17.3 mph N/A   Partly Cloudy